SCP
0 0 0 0 0 0 0 0 0 1 1 1 1 1 1 0 0 0 0 0 0 0 0 0 0 0 0 0 0 0 0 0 0 0 0 0 0 0 0 0 0 0 0
0 0 0 0 0 0 0 0 0 1 1 1 1 1 1 0 0 0 0 0 0 0 0 0 0 0 0 0 0 0 0 0 0 0 0 0 0 0 0 0 0 0 0
0 0 0 0 0 0 0 0 0 1 1 1 1 0 0 0 0 0 0 0 0 0 0 0 0 0 0 0 0 0 0 0 0 0 0 0 0 0 0 0 0 0 0
0 0 0 0 0 0 0 0 0 1 1 0 0 0 0 0 0 0 0 0 0 0 0 0 0 0 0 0 0 0 0 0 0 0 0 0 0 0 0 0 0 0 0
-0 0 0 0 0 0 0 0 0 0 0 0 0 0 0 0 0 0 0 0 0 0 0 0 0 0 -0 0 0 0 0 0 0 0 0 0 0 0 0 0 0 0 0
-0 0 -0 0 0 0 0 0 0 0 0 0 0 0 0 0 0 0 0 0 0 0 0 0 0 0 -0 0 0 0 0 0 0 0 0 0 0 0 0 0 0 0 0
-0 0 -0 -0 -0 -0 0 0 0 0 0 0 0 0 0 0 0 0 0 0 0 0 0 0 0 0 0 0 0 0 0 0 0 0 0 0 0 0 0 0 0 0 0
-0 0 -0 0 0 0 0 0 0 0 0 0 0 0 0 0 0 0 0 0 0 0 0 0 0 0 0 0 0 0 0 0 0 0 0 0 0 0 0 0 0 0 0
-0 0 -0 -0 0 -0 0 0 0 0 0 0 0 0 0 0 -0 0 0 0 0 0 0 0 0 0 0 0 0 0 0 0 0 0 0 0 0 0 0 0 0 0 0
0 -0 -0 0 0 -0 0 0 0 0 0 0 0 0 0 0 0 -0 0 0 0 0 0 0 -0 -0 0 0 0 0 0 0 0 0 0 0 0 0 0 0 0 0 0
-0 -0 0 0 -0 0 0 0 0 0 0 0 0 0 0 0 0 0 0 0 0 0 0 -0 -0 -0 -0 -0 0 0 0 0 0 0 0 0 0 0 0 0 0 0 0
-0 0 0 0 0 0 0 0 0 0 0 0 0 0 0 0 0 0 0 0 0 -0 -0 -0 -0 -0 -0 -0 0 0 0 0 0 0 0 0 0 0 0 0 0 0 0
0 0 -0 0 0 0 0 0 0 0 0 -0 0 0 0 0 0 0 0 -0 0 -0 -0 -0 -0 -0 -0 -0 -0 0 0 0 0 0 0 0 0 0 0 0 0 0 0
0 0 0 0 0 0 0 0 0 0 0 0 0 0 0 0 0 0 0 0 -0 -0 -0 -0 -0 -0 -0 -0 0 0 0 0 0 0 0 0 0 0 0 0 0 0 0
-0 0 0 0 0 0 0 0 0 0 0 0 -0 0 0 0 0 -0 -0 -0 0 0 -0 -0 -0 -0 -0 0 0 0 0 0 0 0 0 0 0 0 0 0 0 0 0
0 0 0 0 0 0 0 0 0 0 0 0 0 0 0 -0 -0 -0 -0 -0 -0 0 -0 -0 -0 -0 -0 0 0 0 0 0 0 0 0 0 0 0 0 0 0 0 0
0 0 0 0 0 0 0 0 0 0 0 -0 -0 -0 -0 -0 -0 -0 -0 -0 -0 -0 -0 0 0 0 0 -0 -0 0 0 0 0 0 0 0 0 0 0 0 0 0 0
0 0 0 0 0 0 0 0 0 0 0 0 -0 -0 -0 -0 -0 -0 -0 -0 -0 -0 -0 0 0 0 -0 -0 -0 -0 0 0 0 0 0 0 0 0 0 0 0 0 0
0 0 0 0 0 0 0 0 0 0 0 0 0 -0 -0 -0 -0 -0 -0 -0 0 0 0 0 0 0 -0 -0 -0 -0 0 0 0 0 0 0 0 0 0 0 0 0 0
0 0 0 0 0 0 0 0 0 0 0 0 0 -0 0 -0 -0 0 0 -0 -0 -0 -0 0 0 -0 -0 -0 -0 -0 0 0 0 0 0 0 0 0 0 0 0 0 0
0 0 0 0 0 0 0 0 0 -0 0 0 0 0 -0 0 0 0 -0 -0 -0 -0 0 0 -0 -0 -0 -0 -0 0 0 0 0 0 0 0 0 0 0 0 0 0 0
0 0 0 0 0 0 0 -0 0 -0 -0 0 0 0 0 0 0 -0 -0 -0 -0 0 0 0 -0 -0 -0 -0 -0 -0 0 0 0 0 0 0 0 -0 0 0 0 0 0
0 0 0 0 0 0 0 -0 -0 0 0 0 0 0 0 0 -0 -0 -0 0 0 0 -0 -0 -0 -0 -0 -0 -0 0 0 0 0 0 0 0 0 -0 -0 -0 -0 0 0
0 0 0 0 0 0 0 -0 0 0 0 0 0 0 0 -0 -0 -0 -0 0 0 -0 -0 -0 -0 -0 -0 -0 -0 -0 0 0 0 0 0 0 0 -0 -0 -0 -0 0 0
0 0 0 0 0 0 0 0 -0 0 0 0 0 0 0 -0 -0 -0 0 0 -0 -0 -0 -0 -0 -0 -0 -0 -0 -0 -0 -0 0 0 0 -0 -0 0 -0 -0 -0 0 0
0 0 0 0 0 0 -0 -0 -0 -0 0 0 0 0 -0 -0 0 0 0 0 -0 -0 -0 -0 -0 -0 -0 -0 -0 -0 -0 -0 -0 -0 -0 -0 -0 -0 0 0 -0 0 0
Wind_Speed_500mb
63 67 71 71 59 56 57 63 70 77 84 81 69 53 56 61 72 76 71 80 70 68 64 57 44 37 32 29 25 23 20 22 25 24 26 30 36 41 43 45 46 46 45
64 68 68 68 56 57 55 53 50 63 72 64 53 48 56 62 63 82 84 69 69 67 61 50 40 36 32 25 21 18 17 18 18 19 22 26 33 40 46 47 42 41 42
68 71 68 63 57 55 51 53 54 54 55 50 54 49 55 58 49 66 68 75 70 68 44 41 34 29 21 17 16 11 14 13 13 16 21 28 34 43 46 46 42 36 37
68 70 64 60 52 47 39 49 47 45 46 51 49 45 49 52 50 66 65 60 70 63 50 44 35 26 19 15 10 10 9 10 14 18 21 28 37 44 47 48 48 51 43
70 69 66 51 40 32 23 38 43 53 51 49 40 44 52 53 52 77 75 81 86 70 60 46 37 28 20 10 11 8 6 12 15 17 24 31 37 44 48 52 54 58 45
69 68 40 30 29 14 24 38 61 60 52 46 43 41 59 61 51 80 82 82 69 61 59 52 39 26 17 15 10 5 7 10 15 21 27 32 36 39 45 49 55 57 57
61 50 23 28 15 20 38 54 54 56 56 55 49 54 58 63 59 81 81 71 63 60 52 40 28 27 18 12 9 9 12 15 18 24 29 31 36 42 44 49 47 44 45
48 29 14 22 6 25 41 52 59 63 65 59 60 64 68 70 83 82 77 70 66 55 42 34 30 29 24 14 11 9 11 14 20 25 28 33 38 41 39 40 39 42 43
37 24 3 6 19 29 44 56 63 66 61 59 67 73 85 84 74 71 73 68 63 56 45 32 25 27 24 17 10 9 10 16 23 25 26 29 33 37 34 38 39 47 49
31 18 2 21 38 44 59 70 76 71 72 77 87 88 88 89 79 77 64 66 64 55 46 39 28 20 20 16 9 11 13 22 22 19 20 27 35 36 31 32 38 40 42
11 6 18 28 39 56 69 78 86 93 104 108 106 97 92 86 78 73 69 61 58 54 47 41 33 24 22 19 20 22 30 30 27 25 25 29 33 35 31 30 33 33 35
9 20 37 46 55 67 77 85 95 109 111 107 106 104 96 94 86 73 62 48 47 49 50 46 38 29 30 32 32 34 32 28 32 30 28 35 41 44 42 33 30 28 27
22 37 50 57 67 79 94 104 109 112 121 117 115 106 97 85 77 67 62 55 49 55 52 46 40 39 37 40 40 37 37 40 43 42 40 36 42 45 44 37 28 33 19
41 48 51 58 71 79 88 106 109 108 117 116 112 110 100 89 79 68 60 54 51 55 51 49 46 45 46 45 42 48 49 49 47 42 41 38 34 36 44 41 36 36 39
46 54 62 73 80 84 88 90 93 91 97 107 103 99 90 80 67 58 53 50 51 52 55 53 51 49 50 49 52 54 50 48 46 48 49 43 35 38 44 42 38 43 41
48 58 63 70 76 87 91 86 85 92 91 88 85 81 76 72 62 54 51 51 48 48 54 57 56 55 56 54 56 55 54 51 52 50 46 39 37 42 45 51 48 48 46
59 67 82 86 88 86 87 91 94 84 81 74 71 69 66 61 53 50 49 48 46 42 54 56 57 57 57 55 54 52 55 52 51 49 45 42 39 42 45 53 49 51 48
70 78 83 85 83 86 90 90 86 86 85 77 63 60 55 52 48 44 41 44 49 51 54 55 55 53 54 54 52 52 52 53 53 48 45 47 45 46 47 50 52 54 54
72 75 78 84 86 87 89 86 85 85 82 76 65 56 48 48 47 44 39 47 53 54 52 52 51 47 50 49 50 49 55 55 48 50 51 50 51 51 47 48 50 51 52
66 74 76 76 81 82 82 83 82 78 73 65 58 54 46 48 50 51 52 53 53 53 51 49 46 44 46 44 48 51 51 50 52 56 54 52 53 50 48 47 51 56 54
60 60 63 68 73 74 77 76 73 69 65 61 57 47 43 51 57 55 54 52 51 49 47 46 46 44 42 45 49 52 50 55 57 58 57 56 53 47 48 49 49 54 54
59 57 59 64 69 69 69 65 63 62 60 60 57 48 44 51 54 51 51 49 47 45 43 41 45 44 45 47 49 49 51 57 61 60 58 57 54 47 46 50 50 55 55
54 50 58 64 64 63 62 59 58 57 57 54 51 49 46 50 50 48 45 45 42 39 39 39 42 45 48 47 47 48 53 57 61 60 59 58 56 50 47 49 52 52 53
52 59 64 63 59 59 57 57 54 52 52 50 48 47 47 49 48 45 41 39 37 35 35 36 40 44 44 48 48 48 50 53 56 58 58 58 56 51 47 47 51 52 55
58 63 58 57 56 56 54 52 50 48 46 44 46 50 49 48 46 42 38 34 33 33 35 35 38 38 43 46 47 46 47 51 55 57 56 57 57 53 52 47 50 55 57
63 60 57 54 51 49 47 47 47 45 46 48 48 48 47 44 45 39 37 33 33 33 31 34 38 37 40 44 47 46 46 51 55 57 58 60 62 59 55 49 48 54 56
Wind_Direction_500mb
311 317 305 299 283 279 276 263 256 240 230 238 234 230 241 241 236 234 225 213 217 222 225 228 219 224 233 236 250 254 255 262 259 266 279 293 303 306 312 318 323 322 316
315 313 307 303 287 282 275 253 244 230 228 231 219 226 237 236 233 233 223 213 209 208 208 211 213 216 221 232 242 255 266 273 272 286 295 304 310 315 322 326 329 333 325
319 311 303 301 291 285 276 241 233 229 224 213 214 223 228 231 236 226 218 214 206 203 202 204 211 210 213 227 238 256 270 273 292 303 314 320 322 322 325 331 337 343 345
322 315 307 298 291 282 269 223 220 207 196 194 210 222 223 221 225 218 209 201 198 185 203 207 201 194 201 213 221 238 255 295 317 327 329 329 329 329 335 341 348 351 358
323 316 310 299 283 283 233 208 206 192 187 198 208 208 219 220 213 216 209 201 198 187 186 172 173 179 191 189 212 227 293 326 333 333 333 337 338 342 346 352 352 348 4
328 322 316 298 287 221 193 205 190 184 187 194 191 200 204 195 212 197 194 170 173 160 163 161 164 167 179 200 210 266 334 352 340 340 345 352 350 347 351 353 358 356 1
333 333 321 310 323 204 189 182 178 180 181 182 185 189 192 184 194 166 163 152 146 149 154 157 147 157 157 143 101 49 18 357 346 359 1 1 357 354 350 355 1 355 354
334 334 310 307 256 205 193 181 174 175 174 174 174 178 178 168 165 158 146 146 141 136 138 134 144 136 122 108 75 48 14 348 3 14 14 9 0 357 353 357 357 356 356
343 344 336 192 174 172 167 165 162 162 160 163 168 160 151 143 147 139 141 142 134 130 121 125 131 124 112 97 69 42 18 18 23 26 21 11 4 354 351 359 2 356 354
358 356 161 150 154 163 159 155 155 159 155 148 138 136 136 135 141 141 138 129 124 124 130 125 117 119 115 102 86 67 56 46 39 37 27 13 5 355 353 359 354 350 346
32 67 124 144 148 150 151 149 149 146 142 137 133 131 127 124 115 112 114 118 122 128 125 120 119 121 114 104 85 69 56 45 31 26 25 19 14 8 5 4 353 347 342
62 113 125 135 137 136 144 142 141 136 131 129 124 119 116 112 111 112 110 121 132 126 119 115 114 113 100 84 69 61 56 45 37 32 24 18 16 13 12 360 1 352 341
105 117 120 131 128 126 132 137 134 131 127 123 119 120 117 116 117 122 129 131 123 113 107 109 111 97 84 76 68 60 52 43 34 29 23 15 13 12 4 359 352 2 10
113 117 122 128 125 122 126 130 127 126 124 120 120 119 121 125 127 126 123 117 110 103 106 105 94 88 79 72 64 54 44 37 32 28 22 18 16 13 12 15 21 17 11
121 125 126 129 129 129 123 122 120 118 120 122 125 123 124 123 121 119 112 106 102 100 100 96 89 82 75 66 59 51 44 41 33 30 23 22 23 19 17 20 23 20 22
117 119 122 124 121 118 113 110 113 119 123 120 118 117 113 111 115 111 103 95 97 103 97 88 82 73 65 59 53 46 40 37 33 28 25 26 25 20 17 23 25 23 21
120 124 124 121 118 114 115 114 114 113 109 107 107 106 105 108 105 101 99 102 104 102 90 84 76 69 62 55 50 43 39 36 32 27 25 29 28 26 25 23 24 24 25
125 121 116 114 115 116 116 117 116 114 111 108 104 104 104 104 105 106 109 110 102 88 83 77 73 66 61 55 48 41 38 35 31 25 27 30 29 26 27 25 27 27 25
122 120 121 122 122 122 122 121 119 117 116 115 117 113 111 109 108 108 113 100 94 87 80 75 69 66 59 52 46 42 38 34 29 28 30 26 29 30 29 27 29 32 30
129 130 130 128 127 127 126 125 123 120 117 118 117 113 114 115 113 108 99 94 89 82 78 74 71 66 60 53 47 44 40 34 32 31 29 29 30 29 30 33 32 34 30
127 128 132 133 133 132 129 125 122 120 119 115 109 109 113 111 108 104 99 92 87 82 76 71 65 64 63 56 49 45 39 34 33 32 29 29 30 32 32 35 35 38 34
134 139 137 136 135 132 127 122 120 117 114 112 111 111 113 110 107 104 99 93 87 82 77 71 69 65 62 56 49 43 36 33 33 31 29 29 31 33 37 39 40 40 38
145 140 138 135 133 130 125 121 121 119 115 111 110 111 113 110 106 102 99 93 88 83 77 71 68 62 58 53 47 41 35 31 30 29 29 30 33 35 40 41 42 41 36
141 142 141 138 137 133 130 128 123 119 116 116 116 113 112 108 104 101 97 94 90 84 77 71 67 62 55 51 45 42 36 33 31 31 31 31 35 37 45 45 46 49 47
144 147 146 142 140 136 133 127 123 123 121 119 118 116 113 110 106 101 98 92 86 82 77 71 66 60 56 49 44 42 38 34 33 35 35 36 39 39 46 48 48 49 47
147 149 146 143 141 136 131 131 128 125 125 123 121 117 114 111 106 102 96 90 86 82 78 73 66 58 54 48 43 40 40 37 36 37 37 38 40 42 46 51 54 54 53
Wind_Speed_850mb
63 67 71 71 59 56 57 63 70 77 84 81 69 53 56 61 72 76 71 80 70 68 64 57 44 37 32 29 25 23 20 22 25 24 26 30 36 41 43 45 46 46 45
64 68 68 68 56 57 55 53 50 63 72 64 53 48 56 62 63 82 84 69 69 67 61 50 40 36 32 25 21 18 17 18 18 19 22 26 33 40 46 47 42 41 42
68 71 68 63 57 55 51 53 54 54 55 50 54 49 55 58 49 66 68 75 70 68 44 41 34 29 21 17 16 11 14 13 13 16 21 28 34 43 46 46 42 36 37
68 70 64 60 52 47 39 49 47 45 46 51 49 45 49 52 50 66 65 60 70 63 50 44 35 26 19 15 10 10 9 10 14 18 21 28 37 44 47 48 48 51 43
70 69 66 51 40 32 23 38 43 53 51 49 40 44 52 53 52 77 75 81 86 70 60 46 37 28 20 10 11 8 6 12 15 17 24 31 37 44 48 52 54 58 45
69 68 40 30 29 14 24 38 61 60 52 46 43 41 59 61 51 80 82 82 69 61 59 52 39 26 17 15 10 5 7 10 15 21 27 32 36 39 45 49 55 57 57
61 50 23 28 15 20 38 54 54 56 56 55 49 54 58 63 59 81 81 71 63 60 52 40 28 27 18 12 9 9 12 15 18 24 29 31 36 42 44 49 47 44 45
48 29 14 22 6 25 41 52 59 63 65 59 60 64 68 70 83 82 77 70 66 55 42 34 30 29 24 14 11 9 11 14 20 25 28 33 38 41 39 40 39 42 43
37 24 3 6 19 29 44 56 63 66 61 59 67 73 85 84 74 71 73 68 63 56 45 32 25 27 24 17 10 9 10 16 23 25 26 29 33 37 34 38 39 47 49
31 18 2 21 38 44 59 70 76 71 72 77 87 88 88 89 79 77 64 66 64 55 46 39 28 20 20 16 9 11 13 22 22 19 20 27 35 36 31 32 38 40 42
11 6 18 28 39 56 69 78 86 93 104 108 106 97 92 86 78 73 69 61 58 54 47 41 33 24 22 19 20 22 30 30 27 25 25 29 33 35 31 30 33 33 35
9 20 37 46 55 67 77 85 95 109 111 107 106 104 96 94 86 73 62 48 47 49 50 46 38 29 30 32 32 34 32 28 32 30 28 35 41 44 42 33 30 28 27
22 37 50 57 67 79 94 104 109 112 121 117 115 106 97 85 77 67 62 55 49 55 52 46 40 39 37 40 40 37 37 40 43 42 40 36 42 45 44 37 28 33 19
41 48 51 58 71 79 88 106 109 108 117 116 112 110 100 89 79 68 60 54 51 55 51 49 46 45 46 45 42 48 49 49 47 42 41 38 34 36 44 41 36 36 39
46 54 62 73 80 84 88 90 93 91 97 107 103 99 90 80 67 58 53 50 51 52 55 53 51 49 50 49 52 54 50 48 46 48 49 43 35 38 44 42 38 43 41
48 58 63 70 76 87 91 86 85 92 91 88 85 81 76 72 62 54 51 51 48 48 54 57 56 55 56 54 56 55 54 51 52 50 46 39 37 42 45 51 48 48 46
59 67 82 86 88 86 87 91 94 84 81 74 71 69 66 61 53 50 49 48 46 42 54 56 57 57 57 55 54 52 55 52 51 49 45 42 39 42 45 53 49 51 48
70 78 83 85 83 86 90 90 86 86 85 77 63 60 55 52 48 44 41 44 49 51 54 55 55 53 54 54 52 52 52 53 53 48 45 47 45 46 47 50 52 54 54
72 75 78 84 86 87 89 86 85 85 82 76 65 56 48 48 47 44 39 47 53 54 52 52 51 47 50 49 50 49 55 55 48 50 51 50 51 51 47 48 50 51 52
66 74 76 76 81 82 82 83 82 78 73 65 58 54 46 48 50 51 52 53 53 53 51 49 46 44 46 44 48 51 51 50 52 56 54 52 53 50 48 47 51 56 54
60 60 63 68 73 74 77 76 73 69 65 61 57 47 43 51 57 55 54 52 51 49 47 46 46 44 42 45 49 52 50 55 57 58 57 56 53 47 48 49 49 54 54
59 57 59 64 69 69 69 65 63 62 60 60 57 48 44 51 54 51 51 49 47 45 43 41 45 44 45 47 49 49 51 57 61 60 58 57 54 47 46 50 50 55 55
54 50 58 64 64 63 62 59 58 57 57 54 51 49 46 50 50 48 45 45 42 39 39 39 42 45 48 47 47 48 53 57 61 60 59 58 56 50 47 49 52 52 53
52 59 64 63 59 59 57 57 54 52 52 50 48 47 47 49 48 45 41 39 37 35 35 36 40 44 44 48 48 48 50 53 56 58 58 58 56 51 47 47 51 52 55
58 63 58 57 56 56 54 52 50 48 46 44 46 50 49 48 46 42 38 34 33 33 35 35 38 38 43 46 47 46 47 51 55 57 56 57 57 53 52 47 50 55 57
63 60 57 54 51 49 47 47 47 45 46 48 48 48 47 44 45 39 37 33 33 33 31 34 38 37 40 44 47 46 46 51 55 57 58 60 62 59 55 49 48 54 56
Wind_Direction_850mb
311 317 305 299 283 279 276 263 256 240 230 238 234 230 241 241 236 234 225 213 217 222 225 228 219 224 233 236 250 254 255 262 259 266 279 293 303 306 312 318 323 322 316
315 313 307 303 287 282 275 253 244 230 228 231 219 226 237 236 233 233 223 213 209 208 208 211 213 216 221 232 242 255 266 273 272 286 295 304 310 315 322 326 329 333 325
319 311 303 301 291 285 276 241 233 229 224 213 214 223 228 231 236 226 218 214 206 203 202 204 211 210 213 227 238 256 270 273 292 303 314 320 322 322 325 331 337 343 345
322 315 307 298 291 282 269 223 220 207 196 194 210 222 223 221 225 218 209 201 198 185 203 207 201 194 201 213 221 238 255 295 317 327 329 329 329 329 335 341 348 351 358
323 316 310 299 283 283 233 208 206 192 187 198 208 208 219 220 213 216 209 201 198 187 186 172 173 179 191 189 212 227 293 326 333 333 333 337 338 342 346 352 352 348 4
328 322 316 298 287 221 193 205 190 184 187 194 191 200 204 195 212 197 194 170 173 160 163 161 164 167 179 200 210 266 334 352 340 340 345 352 350 347 351 353 358 356 1
333 333 321 310 323 204 189 182 178 180 181 182 185 189 192 184 194 166 163 152 146 149 154 157 147 157 157 143 101 49 18 357 346 359 1 1 357 354 350 355 1 355 354
334 334 310 307 256 205 193 181 174 175 174 174 174 178 178 168 165 158 146 146 141 136 138 134 144 136 122 108 75 48 14 348 3 14 14 9 0 357 353 357 357 356 356
343 344 336 192 174 172 167 165 162 162 160 163 168 160 151 143 147 139 141 142 134 130 121 125 131 124 112 97 69 42 18 18 23 26 21 11 4 354 351 359 2 356 354
358 356 161 150 154 163 159 155 155 159 155 148 138 136 136 135 141 141 138 129 124 124 130 125 117 119 115 102 86 67 56 46 39 37 27 13 5 355 353 359 354 350 346
32 67 124 144 148 150 151 149 149 146 142 137 133 131 127 124 115 112 114 118 122 128 125 120 119 121 114 104 85 69 56 45 31 26 25 19 14 8 5 4 353 347 342
62 113 125 135 137 136 144 142 141 136 131 129 124 119 116 112 111 112 110 121 132 126 119 115 114 113 100 84 69 61 56 45 37 32 24 18 16 13 12 360 1 352 341
105 117 120 131 128 126 132 137 134 131 127 123 119 120 117 116 117 122 129 131 123 113 107 109 111 97 84 76 68 60 52 43 34 29 23 15 13 12 4 359 352 2 10
113 117 122 128 125 122 126 130 127 126 124 120 120 119 121 125 127 126 123 117 110 103 106 105 94 88 79 72 64 54 44 37 32 28 22 18 16 13 12 15 21 17 11
121 125 126 129 129 129 123 122 120 118 120 122 125 123 124 123 121 119 112 106 102 100 100 96 89 82 75 66 59 51 44 41 33 30 23 22 23 19 17 20 23 20 22
117 119 122 124 121 118 113 110 113 119 123 120 118 117 113 111 115 111 103 95 97 103 97 88 82 73 65 59 53 46 40 37 33 28 25 26 25 20 17 23 25 23 21
120 124 124 121 118 114 115 114 114 113 109 107 107 106 105 108 105 101 99 102 104 102 90 84 76 69 62 55 50 43 39 36 32 27 25 29 28 26 25 23 24 24 25
125 121 116 114 115 116 116 117 116 114 111 108 104 104 104 104 105 106 109 110 102 88 83 77 73 66 61 55 48 41 38 35 31 25 27 30 29 26 27 25 27 27 25
122 120 121 122 122 122 122 121 119 117 116 115 117 113 111 109 108 108 113 100 94 87 80 75 69 66 59 52 46 42 38 34 29 28 30 26 29 30 29 27 29 32 30
129 130 130 128 127 127 126 125 123 120 117 118 117 113 114 115 113 108 99 94 89 82 78 74 71 66 60 53 47 44 40 34 32 31 29 29 30 29 30 33 32 34 30
127 128 132 133 133 132 129 125 122 120 119 115 109 109 113 111 108 104 99 92 87 82 76 71 65 64 63 56 49 45 39 34 33 32 29 29 30 32 32 35 35 38 34
134 139 137 136 135 132 127 122 120 117 114 112 111 111 113 110 107 104 99 93 87 82 77 71 69 65 62 56 49 43 36 33 33 31 29 29 31 33 37 39 40 40 38
145 140 138 135 133 130 125 121 121 119 115 111 110 111 113 110 106 102 99 93 88 83 77 71 68 62 58 53 47 41 35 31 30 29 29 30 33 35 40 41 42 41 36
141 142 141 138 137 133 130 128 123 119 116 116 116 113 112 108 104 101 97 94 90 84 77 71 67 62 55 51 45 42 36 33 31 31 31 31 35 37 45 45 46 49 47
144 147 146 142 140 136 133 127 123 123 121 119 118 116 113 110 106 101 98 92 86 82 77 71 66 60 56 49 44 42 38 34 33 35 35 36 39 39 46 48 48 49 47
147 149 146 143 141 136 131 131 128 125 125 123 121 117 114 111 106 102 96 90 86 82 78 73 66 58 54 48 43 40 40 37 36 37 37 38 40 42 46 51 54 54 53